This is the latest recevied weather packets stored in our database for station/object IT9CNT. If no packets are shown the sender has not sent any weather packets the latest 1 day(s).
| Time | Temp. | Humidity | Pressure | Rain* | Wind** | Luminosity | Snow |
|---|---|---|---|---|---|---|---|
| 1778002263 | 16.67° C | 81% | 1012.8 hPa | 0 mm | 1.34 m/s, 132° | - | - |
| 1778002203 | 16.67° C | 81% | 1012.9 hPa | 0 mm | 1.34 m/s, 133° | - | - |
| 1778002143 | 16.67° C | 81% | 1012.8 hPa | 0 mm | 1.79 m/s, 135° | - | - |
| 1778002091 | 16.67° C | 81% | 1013 hPa | 0 mm | 1.79 m/s, 134° | - | - |
| 1778002023 | 17.22° C | 81% | 1012.9 hPa | 0 mm | 1.79 m/s, 134° | - | - |
| 1778001963 | 16.67° C | 81% | 1012.7 hPa | 0 mm | 1.79 m/s, 139° | - | - |
| 1778001903 | 17.22° C | 82% | 1012.9 hPa | 0 mm | 1.79 m/s, 136° | - | - |
| 1778001843 | 17.22° C | 82% | 1012.7 hPa | 0 mm | 1.79 m/s, 134° | - | - |
| 1778001783 | 17.22° C | 82% | 1012.6 hPa | 0 mm | 1.79 m/s, 135° | - | - |
| 1778001723 | 17.22° C | 82% | 1012.8 hPa | 0 mm | 1.79 m/s, 134° | - | - |
| 1778001663 | 17.22° C | 82% | 1012.8 hPa | 0 mm | 1.79 m/s, 131° | - | - |
| 1778001603 | 17.22° C | 81% | 1012.9 hPa | 0 mm | 1.79 m/s, 129° | - | - |
| 1778001543 | 17.22° C | 82% | 1012.7 hPa | 0 mm | 1.79 m/s, 127° | - | - |
| 1778001483 | 17.22° C | 81% | 1012.9 hPa | 0 mm | 1.79 m/s, 129° | - | - |
| 1778001423 | 17.22° C | 81% | 1012.8 hPa | 0 mm | 2.24 m/s, 129° | - | - |
| 1778001363 | 17.22° C | 81% | 1012.6 hPa | 0 mm | 1.79 m/s, 128° | - | - |
| 1778001303 | 17.22° C | 82% | 1012.7 hPa | 0 mm | 1.79 m/s, 129° | - | - |
| 1778001243 | 17.22° C | 81% | 1012.7 hPa | 0 mm | 1.79 m/s, 135° | - | - |
| 1778001183 | 17.22° C | 81% | 1012.9 hPa | 0 mm | 1.79 m/s, 138° | - | - |
| 1778001123 | 17.22° C | 81% | 1013 hPa | 0 mm | 1.79 m/s, 143° | - | - |
| 1778001063 | 17.22° C | 81% | 1012.8 hPa | 0 mm | 1.79 m/s, 146° | - | - |
| 1778001003 | 17.22° C | 81% | 1012.8 hPa | 0 mm | 1.79 m/s, 154° | - | - |
| 1778000943 | 17.22° C | 81% | 1012.7 hPa | 0 mm | 1.34 m/s, 157° | - | - |
| 1778000883 | 17.22° C | 81% | 1012.7 hPa | 0 mm | 1.34 m/s, 162° | - | - |
| 1778000823 | 17.78° C | 81% | 1012.8 hPa | 0 mm | 0.89 m/s, 168° | - | - |
* Rain latest hour (hover to see other rain measurements)
** Current wind speed in m/s (hover to see current wind gust speed)